Regional Weather Roundup
Issued by NWS

Home | Current Version | Previous Version | Text Only | Print | Product List | Glossary Off
Versions: 1 2 3 4 5 6 7 8 9 10 11 12 13 14 15 16 17 18 19 20 21 22 23 24 25 26 27 28 29 30 31 32 33 34 35 36 37 38 39 40 41 42 43 44 45 46 47 48 49 50

000
ASUS43 KMKX 282100
RWRWI

WISCONSIN REGIONAL WEATHER ROUNDUP
NATIONAL WEATHER SERVICE MILWAUKEE/SULLIVAN WI
400 PM CDT TUE JUL 28 2015

NOTE: "FAIR" INDICATES FEW OR NO CLOUDS BELOW 12,000 FEET WITH NO
SIGNIFICANT WEATHER AND/OR OBSTRUCTIONS TO VISIBILITY.

WIZ001-002-006>008-014>016-023>028-282200-
NORTHWEST WISCONSIN

CITY           SKY/WX    TMP DP  RH WIND       PRES   REMARKS
SUPERIOR ARPT  PTSUNNY   85  70  60 SW17G23   29.76F HX  90
ASHLAND        PTSUNNY   86  69  56 S10G22    29.80S HX  90
HAYWARD        PTSUNNY   84  68  58 S16G22    29.83F HX  87
SIREN          PTSUNNY   83  68  60 SW14G20   29.81F HX  86
CUMBERLAND     PTSUNNY   81  70  69 SW10      29.84F HX  84
RICE LAKE      PTSUNNY   81  70  68 S10G16    29.85F HX  84
CHETEK         PTSUNNY   83  73  72 S6        29.84F HX  88
LADYSMITH      PTSUNNY   83  70  64 S12       29.88S HX  86
EAU CLAIRE     NOT AVBL
MENOMONIE      NOT AVBL
NEW RICHMOND   MOSUNNY   84  70  63 SW10      29.83S HX  88
OSCEOLA        CLOUDY    83  70  65 SW12G17   29.85S HX  87
$$

WIZ003>005-009-010-017-018-282200-
NORTH CENTRAL WISCONSIN

CITY           SKY/WX    TMP DP  RH WIND       PRES   REMARKS
MANITOWISH WTR PTSUNNY   80  67  65 S15G23    29.89F HX  82
ARBOR VITAE    PTSUNNY   80  67  64 S15       29.91S HX  82
WOODRUFF       PTSUNNY   80  67  64 S15       29.91S HX  82
RHINELANDER    CLOUDY    81  66  60 S12       29.93S HX  83
EAGLE RIVER    PTSUNNY   80  63  55 S9G18     29.92S HX  82
LAND O LAKES   PTSUNNY   79  64  59 S12G20    29.92F HX  81
PHILLIPS       PTSUNNY   80  68  67 S13       29.88S HX  82
TOMAHAWK       PTSUNNY   80  67  65 S3        29.92S HX  83
MEDFORD        CLOUDY    77  69  76 S12       29.90F
MERRILL        NOT AVBL
$$

WIZ029-030-035-036-043>047-282200-
CENTRAL WISCONSIN

CITY           SKY/WX    TMP DP  RH WIND       PRES   REMARKS
WAUSAU         CLOUDY    83  67  58 S10       29.89F HX  85
MOSINEE        NOT AVBL
MARSHFIELD     CLOUDY    79  68  69 S13       29.89F HX  81
STEVENS POINT  CLOUDY    81  67  61 S12       29.91S HX  83
WAUPACA        CLOUDY    85  68  56 S8        29.89S HX  88
WAUTOMA        NOT AVBL
WISC RAPIDS    CLOUDY    83  68  60 SW8       29.90F HX  86
CAMP DOUGLAS   NOT AVBL
$$

WIZ011>013-019>022-031-037>040-048>050-282200-
NORTHEAST WISCONSIN

CITY           SKY/WX    TMP DP  RH WIND       PRES   REMARKS
ANTIGO         PTSUNNY   81  67  62 S13       29.94S HX  84
SHAWANO        CLOUDY    87  64  45 SE7       29.90F HX  88
OCONTO         CLOUDY    83  64  52 SE9       29.89F HX  85
STURGEON BAY   PTSUNNY   81  61  50 S10G16    29.95F HX  81
GREEN BAY      CLOUDY    84  66  54 SE12      29.89F HX  86
MANITOWOC      NOT AVBL
APPLETON       MOSUNNY   84  59  42 S14       29.90S HX  84
CLINTONVILLE   CLOUDY    84  64  51 S6        29.89S HX  86
OSHKOSH        CLOUDY    84  65  52 S12G21    29.88S HX  86
$$

WIZ032>034-041-042-053>061-282200-
SOUTHWEST WISCONSIN

CITY           SKY/WX    TMP DP  RH WIND       PRES   REMARKS
LA CROSSE      SUNNY     83  71  67 S13       29.84R HX  87
SPARTA         PTSUNNY   82  69  65 SE7       29.86F HX  85
VIROQUA        MOSUNNY   80  72  76 S7        29.88S HX  83
BOSCOBEL       CLOUDY    83  74  74 S6        29.88R HX  89
PRAIRIE DU CHI CLOUDY    80  69  69 S5        29.88R HX  83
PLATTEVILLE    CLOUDY    78  75  89 S10       29.90R HX  81
$$

WIZ056-057-062-063-064-067-068-282200-
SOUTH CENTRAL WISCONSIN

CITY           SKY/WX    TMP DP  RH WIND       PRES   REMARKS
REEDSBURG      CLOUDY    83  73  70 S10       29.86F HX  89
BARABOO/DELLS  CLOUDY    84  69  60 S17G23    29.87S HX  88
LONE ROCK      NOT AVBL
MINERAL POINT  CLOUDY    81  73  78 S8        29.91R HX  85
MADISON        CLOUDY    84  71  65 S12       29.89R HX  89
MIDDLETON      CLOUDY    83  70  64 S8        29.90R HX  87
WATERTOWN      CLOUDY    83  73  72 S3        29.89R HX  89
MONROE         CLOUDY    79  72  78 S13G18    29.90R HX  82
JANESVILLE     CLOUDY    84  72  65 S13       29.88R HX  89
$$

WIZ051-052-058>065-066-070>072-282200-
SOUTHEAST WISCONSIN

CITY           SKY/WX    TMP DP  RH WIND       PRES   REMARKS
MILWAUKEE      PTSUNNY   79  66  64 SE17G23   29.88F HX  81
WAUKESHA       PTSUNNY   82  66  57 SE13G18   29.90F HX  85
MILWAUKEE/TIMM SUNNY     82  63  51 SE12      29.88F HX  83
RACINE         PTSUNNY   80  66  62 SE13      29.91F HX  82
BURLINGTON     PTSUNNY   84  67  57 SE13G18   29.86F HX  86
KENOSHA        PTSUNNY   83  69  62 SE18G24   29.88F HX  86
FOND DU LAC    CLOUDY    85  67  54 S12       29.88F HX  87
SHEBOYGAN      PTSUNNY   80  67  64 SE12      29.91F HX  82
WEST BEND      CLOUDY    81  63  54 E12       29.88F HX  82
JUNEAU         CLOUDY    84  71  65 S12G17    29.90R HX  89
$$

LSZ147-162-282200-
LAKE SUPERIOR

STATION/POSITION TIME  TEMP    WIND        PRES    WAVE
                       AIR SEA DIR/SP/G            HT/PER
                 (UTC) (F)     (DEG/KT/KT) (MB)    (FT/S)
W MID LAKE BUOY  1950   67 62  140/ 10/ 12 1009.4R   1/ 3
DEVILS ISLAND    2000   81     210/ 10/ 13 1008.1R
SAXON HARBOR     1900   83                 1008.8
$$

LMZ867-665-643>646-282200-
LAKE MICHIGAN

STATION/POSITION TIME  TEMP    WIND        PRES    WAVE
                       AIR SEA DIR/SP/G            HT/PER
                 (UTC) (F)     (DEG/KT/KT) (MB)    (FT/S)
CHAMBERS ISLAND  2000   84     140/  5/ 14 1013.2S
S GREEN BAY BUOY 2000   81 76  150/ 12/ 16 1014.3F
N MID LAKE BUOY  1950   72 71  180/  8/  8 1014.4F   1
NORTHPORT PIER   2000   75     140/ 10/ 13 1013.9F
SISTER BAY       2014   87     180/ 14/ 18   N/A
ALGOMA LAKESHORE 1927          200/  8/  9   N/A
KEWAUNEE LAKESHO 2000   67     160/  6/  8 1013.5F
SHEBOYGAN LAKESH 2000   71     160/ 12/ 12 1013.8F
PORT WASHINGTON  2000   76     170/  5/ 13 1013.9
ATWATER BUOY     2000   73     140/ 16/ 17 1014.9F
MILWAUKEE LAKESH 2000   72     130/ 16/ 17   N/A
KENOSHA   LAKESH 2000   76     150/  8/  9 1013.5F
$$

TC  - TEMPERATURE IN CELSIUS
VSB - VISIBILITY IN STATUTE MILES
WCI - WIND CHILL INDEX
HX  - HEAT INDEX



USA.gov is the U.S. government's official web portal to all federal, state and local government web resources and services.